When you browse on this site, cookies collect data to enhance your experience and personalize the content and advertising you see.
Visit our Privacy Policy to learn more. By continuing to use the site, you agree to this use of cookies and data.

Hourly Weather Kerns

Today, 11 July, Saturday

Time Temperature Precipitation Wind Pressure Humidity
00:00 +20°C° 0 mm 4 mps 762 mmHg 96%
01:00 +20°C° 0 mm 4 mps 762 mmHg 96%
02:00 +20°C° 0 mm 4 mps 761 mmHg 96%
03:00 +20°C° 0 mm 4 mps 761 mmHg 97%
04:00 +20°C° 0 mm 3 mps 761 mmHg 97%
05:00 +20°C° 0 mm 3 mps 761 mmHg 97%
06:00 +20°C° 0 mm 3 mps 761 mmHg 97%
07:00 +20°C° 0 mm 3 mps 761 mmHg 96%
08:00 +22°C° 0 mm 4 mps 761 mmHg 87%
09:00 +25°C° 0 mm 4 mps 761 mmHg 77%
10:00 +27°C° 0 mm 4 mps 761 mmHg 68%
11:00 +28°C° 0 mm 4 mps 761 mmHg 64%
12:00 +29°C° 0 mm 4 mps 760 mmHg 61%
13:00 +30°C° 0 mm 5 mps 760 mmHg 58%
14:00 +29°C° 0 mm 5 mps 759 mmHg 60%
15:00 +29°C° 0 mm 5 mps 759 mmHg 62%
16:00 +28°C° 0 mm 5 mps 758 mmHg 64%
17:00 +26°C° 0 mm 4 mps 759 mmHg 74%
18:00 +25°C° 0 mm 4 mps 759 mmHg 83%
19:00 +22°C° 0 mm 3 mps 759 mmHg 92%
20:00 +22°C° 0 mm 3 mps 760 mmHg 93%
21:00 +21°C° 0 mm 3 mps 760 mmHg 94%
22:00 +21°C° 0 mm 3 mps 761 mmHg 95%
23:00 +21°C° 0.2 mm 3 mps 760 mmHg 96%

Tomorrow, 12 July, Sunday

Time Temperature Precipitation Wind Pressure Humidity
00:00 +21°C° 0.2 mm 3 mps 760 mmHg 97%
01:00 +21°C° 0.2 mm 3 mps 760 mmHg 98%
02:00 +22°C° 0.1 mm 3 mps 759 mmHg 98%
03:00 +22°C° 0.1 mm 3 mps 759 mmHg 98%
04:00 +22°C° 0.1 mm 3 mps 759 mmHg 98%
05:00 +22°C° 0.1 mm 3 mps 759 mmHg 98%
06:00 +22°C° 0.1 mm 3 mps 760 mmHg 98%
07:00 +22°C° 0.1 mm 3 mps 760 mmHg 98%
08:00 +24°C° 0.1 mm 3 mps 760 mmHg 92%
09:00 +25°C° 0.1 mm 4 mps 760 mmHg 85%
10:00 +26°C° 0.1 mm 4 mps 760 mmHg 79%
11:00 +27°C° 0 mm 4 mps 760 mmHg 73%
12:00 +28°C° 0 mm 4 mps 759 mmHg 67%
13:00 +29°C° 0 mm 4 mps 759 mmHg 62%
14:00 +29°C° 0 mm 4 mps 759 mmHg 63%
15:00 +28°C° 0 mm 4 mps 758 mmHg 65%
16:00 +28°C° 0 mm 4 mps 758 mmHg 67%
17:00 +26°C° 0 mm 4 mps 758 mmHg 76%
18:00 +25°C° 0 mm 4 mps 759 mmHg 86%
19:00 +22°C° 0 mm 4 mps 759 mmHg 95%
20:00 +22°C° 0 mm 4 mps 760 mmHg 95%
21:00 +21°C° 0 mm 4 mps 760 mmHg 96%
22:00 +21°C° 0 mm 3 mps 760 mmHg 96%
23:00 +21°C° 0 mm 3 mps 760 mmHg 93%

Day after tomorrow, 13 July, Monday

Time Temperature Precipitation Wind Pressure Humidity
00:00 +21°C° 0 mm 3 mps 760 mmHg 90%
01:00 +21°C° 0 mm 3 mps 760 mmHg 88%
02:00 +21°C° 0 mm 3 mps 760 mmHg 84%
03:00 +21°C° 0 mm 3 mps 760 mmHg 80%
04:00 +21°C° 0 mm 3 mps 760 mmHg 77%
05:00 +21°C° 0 mm 3 mps 760 mmHg 76%
06:00 +21°C° 0 mm 3 mps 760 mmHg 75%
07:00 +21°C° 0 mm 3 mps 761 mmHg 75%
08:00 +23°C° 0 mm 4 mps 761 mmHg 70%
09:00 +26°C° 0 mm 4 mps 761 mmHg 65%
10:00 +28°C° 0 mm 4 mps 762 mmHg 60%
11:00 +29°C° 0 mm 5 mps 761 mmHg 60%
12:00 +29°C° 0 mm 5 mps 760 mmHg 59%
13:00 +30°C° 0 mm 6 mps 760 mmHg 58%
14:00 +29°C° 0 mm 5 mps 760 mmHg 61%
15:00 +28°C° 0 mm 5 mps 760 mmHg 63%
16:00 +28°C° 0 mm 5 mps 759 mmHg 65%
17:00 +26°C° 0 mm 5 mps 760 mmHg 72%
18:00 +23°C° 0 mm 5 mps 760 mmHg 79%
19:00 +22°C° 0 mm 4 mps 761 mmHg 85%
20:00 +21°C° 0 mm 4 mps 761 mmHg 84%
21:00 +21°C° 0 mm 4 mps 762 mmHg 83%
22:00 +21°C° 0 mm 4 mps 762 mmHg 82%
23:00 +20°C° 0 mm 4 mps 762 mmHg 80%

14 July, Tuesday

Time Temperature Precipitation Wind Pressure Humidity
00:00 +20°C° 0 mm 5 mps 762 mmHg 78%
01:00 +20°C° 0 mm 5 mps 762 mmHg 75%
02:00 +19°C° 0 mm 5 mps 761 mmHg 74%
03:00 +19°C° 0 mm 6 mps 761 mmHg 73%
04:00 +19°C° 0 mm 6 mps 761 mmHg 71%
05:00 +19°C° 0 mm 6 mps 761 mmHg 71%
06:00 +17°C° 0 mm 6 mps 762 mmHg 70%
07:00 +17°C° 0 mm 6 mps 762 mmHg 70%
08:00 +20°C° 0 mm 6 mps 762 mmHg 63%
09:00 +22°C° 0 mm 6 mps 763 mmHg 56%
10:00 +24°C° 0 mm 6 mps 763 mmHg 50%
11:00 +26°C° 0 mm 6 mps 762 mmHg 49%
12:00 +27°C° 0 mm 6 mps 762 mmHg 49%
13:00 +28°C° 0 mm 6 mps 761 mmHg 48%
14:00 +27°C° 0 mm 6 mps 761 mmHg 50%
15:00 +27°C° 0 mm 6 mps 760 mmHg 52%
16:00 +26°C° 0 mm 6 mps 760 mmHg 54%
17:00 +23°C° 0 mm 5 mps 760 mmHg 60%
18:00 +21°C° 0 mm 5 mps 761 mmHg 66%
19:00 +19°C° 0 mm 5 mps 761 mmHg 72%
20:00 +19°C° 0 mm 5 mps 762 mmHg 70%
21:00 +19°C° 0 mm 4 mps 762 mmHg 69%
22:00 +18°C° 0 mm 4 mps 763 mmHg 68%
23:00 +18°C° 0 mm 4 mps 762 mmHg 69%

15 July, Wednesday

Time Temperature Precipitation Wind Pressure Humidity
00:00 +18°C° 0 mm 4 mps 762 mmHg 70%
01:00 +18°C° 0 mm 4 mps 762 mmHg 71%
02:00 +16°C° 0 mm 5 mps 762 mmHg 74%
03:00 +16°C° 0 mm 5 mps 762 mmHg 78%
04:00 +16°C° 0 mm 5 mps 761 mmHg 81%
05:00 +16°C° 0 mm 5 mps 762 mmHg 83%
06:00 +15°C° 0 mm 5 mps 762 mmHg 85%
07:00 +15°C° 0 mm 5 mps 762 mmHg 88%
08:00 +19°C° 0 mm 5 mps 762 mmHg 79%
09:00 +21°C° 0 mm 5 mps 762 mmHg 70%
10:00 +23°C° 0 mm 5 mps 762 mmHg 61%
11:00 +25°C° 0 mm 5 mps 762 mmHg 56%
12:00 +26°C° 0 mm 5 mps 761 mmHg 51%
13:00 +27°C° 0 mm 6 mps 760 mmHg 46%
14:00 +27°C° 0 mm 5 mps 760 mmHg 47%
15:00 +26°C° 0 mm 5 mps 760 mmHg 49%
16:00 +25°C° 0 mm 5 mps 759 mmHg 50%
17:00 +22°C° 0 mm 5 mps 760 mmHg 58%
18:00 +20°C° 0 mm 5 mps 760 mmHg 66%
19:00 +18°C° 0 mm 4 mps 761 mmHg 74%
20:00 +17°C° 0 mm 4 mps 761 mmHg 75%
21:00 +15°C° 0 mm 4 mps 762 mmHg 76%
22:00 +14°C° 0 mm 4 mps 762 mmHg 76%
23:00 +14°C° 0 mm 4 mps 762 mmHg 75%

16 July, Thursday

Time Temperature Precipitation Wind Pressure Humidity
00:00 +14°C° 0 mm 4 mps 762 mmHg 73%
01:00 +13°C° 0 mm 4 mps 762 mmHg 71%
02:00 +13°C° 0 mm 4 mps 761 mmHg 72%
03:00 +13°C° 0 mm 4 mps 761 mmHg 73%
04:00 +13°C° 0 mm 4 mps 761 mmHg 74%
05:00 +13°C° 0 mm 4 mps 761 mmHg 77%
06:00 +12°C° 0 mm 4 mps 762 mmHg 80%
07:00 +12°C° 0 mm 4 mps 762 mmHg 83%
08:00 +15°C° 0 mm 5 mps 762 mmHg 72%
09:00 +19°C° 0 mm 5 mps 762 mmHg 60%
10:00 +22°C° 0 mm 5 mps 762 mmHg 49%
11:00 +23°C° 0 mm 5 mps 762 mmHg 47%
12:00 +25°C° 0 mm 5 mps 761 mmHg 44%
13:00 +26°C° 0 mm 6 mps 760 mmHg 42%
14:00 +26°C° 0 mm 5 mps 760 mmHg 44%
15:00 +26°C° 0 mm 5 mps 760 mmHg 47%
16:00 +25°C° 0 mm 5 mps 759 mmHg 50%
17:00 +22°C° 0 mm 5 mps 760 mmHg 59%
18:00 +19°C° 0 mm 4 mps 760 mmHg 69%
19:00 +15°C° 0 mm 4 mps 761 mmHg 78%
20:00 +15°C° 0 mm 4 mps 761 mmHg 79%
21:00 +14°C° 0 mm 4 mps 761 mmHg 80%
22:00 +13°C° 0 mm 3 mps 762 mmHg 82%
23:00 +13°C° 0 mm 3 mps 762 mmHg 80%
Show more